GW3742 Weather Reports


time (UTC)temp
C
wind
direction
speed
KPH
gust
KPH
rain 1hr
cm
rain 24hr
cm
rain mn
cm
humidity
%
barometer
mb
20260507181521 16 284 4.8 0.0 0.00 0.00 0.00 35 1004.9
20260507180021 16 82 3.2 0.0 0.00 0.00 0.00 37 1005.0
20260507174502 16 280 3.2 0.0 0.00 0.00 0.00 33 1005.1
20260507173011 16 259 4.8 0.0 0.00 0.00 0.00 40 1004.9
20260507171546 16 238 3.2 0.0 0.00 0.00 0.00 38 1004.8
20260507170046 16 235 4.8 0.0 0.00 0.00 0.00 38 1005.1
20260507164521 16 10 4.8 0.0 0.00 0.00 0.00 37 1005.5
20260507163018 16 33 4.8 0.0 0.00 0.00 0.00 43 1005.6
20260507161610 15 2 4.8 0.0 0.00 0.00 0.00 48 1005.6
20260507160115 15 183 3.2 0.0 0.00 0.00 0.00 49 1005.9
20260507154539 15 284 3.2 0.0 0.00 0.00 0.00 49 1006.0
20260507153036 14 43 6.4 0.0 0.00 0.00 0.00 51 1006.0
20260507151520 14 341 4.8 0.0 0.00 0.00 0.00 57 1006.2
20260507150016 14 311 3.2 0.0 0.00 0.00 0.00 56 1006.1
20260507144604 14 273 4.8 0.0 0.00 0.00 0.00 61 1006.2
20260507143100 13 194 3.2 0.0 0.00 0.00 0.00 60 1006.3
20260507141537 14 338 3.2 0.0 0.00 0.00 0.00 61 1006.3
20260507140037 13 263 3.2 0.0 0.00 0.00 0.00 63 1006.2
20260507134520 13 269 1.6 0.0 0.00 0.00 0.00 68 1006.2
20260507133018 13 321 3.2 0.0 0.00 0.00 0.00 63 1006.1
20260507131614 13 345 3.2 0.0 0.00 0.00 0.00 64 1006.3
20260507130054 12 240 3.2 0.0 0.00 0.00 0.00 67 1006.4
20260507124553 12 311 1.6 0.0 0.00 0.00 0.00 71 1006.4
20260507123040 12 328 1.6 0.0 0.00 0.00 0.00 72 1006.5
20260507121529 11 285 1.6 0.0 0.00 0.00 0.00 77 1006.6
20260507120013 10 191 1.6 0.0 0.00 0.00 0.00 82 1006.6
20260507114507 9 285 0.0 0.0 0.00 0.00 0.00 84 1006.5
20260507113006 8 226 0.0 0.0 0.00 0.00 0.00 87 1006.5
20260507111507 8 200 0.0 0.0 0.00 0.00 0.00 89 1006.3
20260507110059 8 195 0.0 0.0 0.00 0.00 0.58 89 1006.4
20260507104555 8 207 0.0 0.0 0.00 0.00 0.58 89 1006.3
20260507103051 8 242 0.0 0.0 0.00 0.00 0.58 89 1005.8
20260507101601 8 70 0.0 0.0 0.00 0.00 0.58 89 1005.8
20260507100033 8 282 0.0 0.0 0.00 0.00 0.58 90 1005.7
20260507094528 8 309 0.0 0.0 0.00 0.00 0.58 89 1005.7
20260507093023 8 314 0.0 0.0 0.00 0.00 0.58 89 1006.0
20260507091518 8 281 0.0 0.0 0.00 0.00 0.58 89 1006.0
20260507090014 8 357 0.0 0.0 0.00 0.00 0.58 89 1006.0
20260507084514 8 10 0.0 0.0 0.00 0.00 0.58 90 1005.9
20260507083006 8 91 0.0 0.0 0.00 0.00 0.58 90 1006.0
20260507081501 8 10 0.0 0.0 0.00 0.00 0.58 89 1005.8
20260507080040 8 284 0.0 0.0 0.00 0.00 0.58 88 1005.8
20260507074535 9 317 0.0 0.0 0.00 0.00 0.58 87 1005.6
20260507073014 9 142 0.0 0.0 0.00 0.00 0.58 89 1005.9
20260507071509 9 349 0.0 0.0 0.00 0.00 0.58 89 1005.3
20260507070051 10 349 0.0 0.0 0.00 0.00 0.58 89 1005.1
20260507064600 10 35 1.6 0.0 0.00 0.00 0.58 90 1005.1
20260507063021 10 37 0.0 0.0 0.00 0.00 0.58 90 1005.0
20260507061518 10 240 0.0 0.0 0.00 0.00 0.58 91 1004.8
20260507060058 10 170 0.0 0.0 0.00 0.00 0.58 90 1005.1
20260507054604 11 72 0.0 0.0 0.00 0.00 0.58 91 1005.0
20260507053030 11 72 0.0 0.0 0.00 0.00 0.58 92 1005.7
20260507051526 11 353 0.0 0.0 0.00 0.00 0.58 93 1005.4
20260507050008 11 1 0.0 0.0 0.00 0.00 0.58 92 1005.6
20260507044501 11 327 0.0 0.0 0.00 0.00 0.58 92 1005.2
20260507043039 12 34 0.0 0.0 0.00 0.00 0.58 92 1005.2
20260507041549 12 15 0.0 0.0 0.00 0.00 0.56 92 1005.2
20260507040013 12 15 0.0 0.0 0.00 0.00 0.56 91 1005.2
20260507034513 12 283 1.6 0.0 0.00 0.00 0.56 91 1005.3
20260507033047 13 146 0.0 0.0 0.00 0.00 0.56 92 1004.9
20260507031543 13 313 0.0 0.0 0.00 0.00 0.56 93 1004.4
20260507030021 13 4 1.6 0.0 0.00 0.00 0.53 92 1004.0
20260507024517 14 37 1.6 0.0 0.00 0.00 0.53 94 1004.1
20260507023111 15 190 1.6 0.0 0.00 0.00 0.53 94 1004.0
20260507021554 15 177 1.6 0.0 0.00 0.00 0.53 95 1004.1
20260507020029 14 220 0.0 0.0 0.00 0.00 0.53 95 1003.7
20260507014545 14 185 0.0 0.0 0.00 0.00 0.53 95 1003.8
20260507013013 14 180 0.0 0.0 0.00 0.00 0.53 95 1003.7
20260507011600 14 269 0.0 0.0 0.00 0.00 0.53 94 1003.7
20260507010038 14 123 1.6 0.0 0.00 0.00 0.53 94 1003.7
20260507004533 14 195 3.2 0.0 0.00 0.00 0.53 94 1003.7
20260507003012 14 225 3.2 0.0 0.00 0.00 0.53 94 1003.6
20260507001508 14 171 3.2 0.0 0.00 0.00 0.53 94 1003.4
20260507000048 14 202 1.6 0.0 0.00 0.00 0.53 94 1003.5
20260506234542 14 213 1.6 0.0 0.00 0.00 0.53 94 1003.3
20260506233023 15 285 1.6 0.0 0.00 0.00 0.53 94 1003.2
20260506231516 15 166 1.6 0.0 0.00 0.00 0.53 94 1003.2
20260506230054 15 309 3.2 0.0 0.00 0.00 0.53 94 1003.4
20260506224551 15 207 3.2 0.0 0.00 0.00 0.46 93 1003.4
20260506223029 15 181 4.8 0.0 0.00 0.00 0.43 93 1003.4
20260506221524 15 181 3.2 0.0 0.00 0.00 0.38 93 1003.6
20260506220004 15 128 3.2 0.0 0.00 0.00 0.36 93 1003.8
20260506214609 15 146 3.2 0.0 0.00 0.00 0.33 92 1003.7
20260506213038 15 191 3.2 0.0 0.00 0.00 0.30 92 1003.7
20260506211534 15 196 3.2 0.0 0.00 0.00 0.28 92 1003.8
20260506210014 15 101 3.2 0.0 0.00 0.00 0.28 92 1004.1
20260506204508 15 168 1.6 0.0 0.00 0.00 0.28 92 1004.2
20260506203048 15 184 3.2 0.0 0.00 0.00 0.23 91 1004.4
20260506201542 16 207 4.8 0.0 0.00 0.00 0.18 90 1004.2
20260506200021 16 249 3.2 0.0 0.00 0.00 0.15 89 1004.3
20260506194516 16 343 4.8 0.0 0.00 0.00 0.15 88 1004.5
20260506193114 16 174 4.8 0.0 0.00 0.00 0.15 88 1004.4
20260506191550 16 272 3.2 0.0 0.00 0.00 0.15 89 1004.4
20260506190046 16 199 0.0 0.0 0.00 0.00 0.13 89 1004.3
20260506184524 17 258 1.6 0.0 0.00 0.00 0.10 87 1004.6
20260506183023 17 220 3.2 0.0 0.00 0.00 0.08 85 1004.8